User: anonymous   Login
Location: Sceptre
(50.8619°N, 109.2670°W)
Time: 02:46:17
(UTC+00:00)
Language:

FENGYUN 1C DEB - Orbit

View from above orbital plane
View from above orbital plane
View from above satellite
View from above satellite

Ground track
Ground track

The orbit data is extracted from the following two-line orbital elements,

1 30008U 99025MH  22279.46941064  .00005757  00000-0  18032-2 0  9992
2 30008  99.4071  88.1056 0061842  43.7488  16.7392 14.39971137821976
Epoch (UTC): 06 October 2022 11:15:57
Eccentricity: 0.0061842
inclination: 99.4071°
perigee height: 714 km
apogee height: 803 km
right ascension of ascending node: 88.1056°
argument of perigee: 43.7488°
revolutions per day: 14.39971137
mean anomaly at epoch: 16.7392°
orbit number at epoch: 82197

The dashed part of the orbit path shows where the satellite is in the earth's shadow,  

DLR